• în România
  • Lista ţărilor
  • Pe 7 zile
  • Temperatura apei
  • Hartă satelitară
  • Meteo pe hartă
  • Widget-uri
  • user-avatar
    Intrare

    Meteo pe oră la Oran

    Astăzi, 21 August, Luni

    Timp Temperatura Precipitaţii Vânt Presiune Umiditate
    00:00 +29°C° 0 mm 4 m/s 753 mmHg 68%
    01:00 +29°C° 0 mm 4 m/s 753 mmHg 70%
    02:00 +28°C° 0 mm 4 m/s 753 mmHg 72%
    03:00 +28°C° 0 mm 4 m/s 752 mmHg 74%
    04:00 +28°C° 0 mm 4 m/s 753 mmHg 75%
    05:00 +28°C° 0 mm 4 m/s 753 mmHg 76%
    06:00 +27°C° 0 mm 4 m/s 753 mmHg 78%
    07:00 +28°C° 0 mm 4 m/s 753 mmHg 71%
    08:00 +30°C° 0 mm 4 m/s 753 mmHg 64%
    09:00 +32°C° 0 mm 4 m/s 753 mmHg 57%
    10:00 +33°C° 0 mm 4 m/s 753 mmHg 51%
    11:00 +35°C° 0 mm 5 m/s 753 mmHg 45%
    12:00 +36°C° 0 mm 5 m/s 753 mmHg 39%
    13:00 +36°C° 0 mm 6 m/s 752 mmHg 38%
    14:00 +36°C° 0 mm 6 m/s 752 mmHg 38%
    15:00 +38°C° 0 mm 7 m/s 752 mmHg 37%
    16:00 +36°C° 0 mm 6 m/s 751 mmHg 39%
    17:00 +35°C° 0 mm 6 m/s 751 mmHg 41%
    18:00 +34°C° 0 mm 6 m/s 751 mmHg 43%
    19:00 +33°C° 0 mm 5 m/s 752 mmHg 46%
    20:00 +32°C° 0 mm 5 m/s 752 mmHg 49%
    21:00 +32°C° 0 mm 4 m/s 752 mmHg 53%
    22:00 +30°C° 0 mm 4 m/s 752 mmHg 55%
    23:00 +30°C° 0 mm 4 m/s 752 mmHg 57%

    Mâine, 22 August, Marţi

    Timp Temperatura Precipitaţii Vânt Presiune Umiditate
    00:00 +29°C° 0 mm 3 m/s 753 mmHg 60%
    01:00 +29°C° 0 mm 3 m/s 752 mmHg 63%
    02:00 +28°C° 0 mm 3 m/s 752 mmHg 66%
    03:00 +28°C° 0 mm 3 m/s 752 mmHg 69%
    04:00 +27°C° 0 mm 3 m/s 752 mmHg 70%
    05:00 +27°C° 0 mm 3 m/s 753 mmHg 71%
    06:00 +27°C° 0 mm 2 m/s 753 mmHg 73%
    07:00 +28°C° 0 mm 2 m/s 753 mmHg 65%
    08:00 +29°C° 0 mm 2 m/s 753 mmHg 58%
    09:00 +30°C° 0 mm 2 m/s 753 mmHg 50%
    10:00 +33°C° 0 mm 3 m/s 753 mmHg 44%
    11:00 +34°C° 0 mm 4 m/s 753 mmHg 38%
    12:00 +36°C° 0 mm 4 m/s 752 mmHg 32%
    13:00 +36°C° 0 mm 5 m/s 752 mmHg 31%
    14:00 +37°C° 0 mm 5 m/s 752 mmHg 30%
    15:00 +38°C° 0 mm 6 m/s 751 mmHg 29%
    16:00 +36°C° 0 mm 6 m/s 751 mmHg 31%
    17:00 +35°C° 0 mm 6 m/s 751 mmHg 33%
    18:00 +34°C° 0 mm 5 m/s 751 mmHg 35%
    19:00 +33°C° 0 mm 5 m/s 751 mmHg 38%
    20:00 +32°C° 0 mm 4 m/s 751 mmHg 41%
    21:00 +32°C° 0 mm 4 m/s 752 mmHg 44%
    22:00 +30°C° 0 mm 3 m/s 752 mmHg 46%
    23:00 +29°C° 0 mm 3 m/s 751 mmHg 49%

    Poimâine, 23 August, Miercuri

    Timp Temperatura Precipitaţii Vânt Presiune Umiditate
    00:00 +29°C° 0 mm 3 m/s 751 mmHg 51%
    01:00 +28°C° 0 mm 2 m/s 751 mmHg 54%
    02:00 +28°C° 0 mm 2 m/s 751 mmHg 57%
    03:00 +27°C° 0 mm 2 m/s 751 mmHg 60%
    04:00 +27°C° 0 mm 2 m/s 751 mmHg 61%
    05:00 +27°C° 0 mm 2 m/s 751 mmHg 62%
    06:00 +27°C° 0 mm 2 m/s 751 mmHg 63%
    07:00 +29°C° 0 mm 2 m/s 751 mmHg 54%
    08:00 +30°C° 0 mm 3 m/s 752 mmHg 44%
    09:00 +33°C° 0 mm 3 m/s 752 mmHg 35%
    10:00 +35°C° 0 mm 3 m/s 752 mmHg 31%
    11:00 +36°C° 0 mm 3 m/s 752 mmHg 28%
    12:00 +38°C° 0 mm 4 m/s 751 mmHg 24%
    13:00 +38°C° 0 mm 4 m/s 751 mmHg 26%
    14:00 +39°C° 0 mm 5 m/s 751 mmHg 27%
    15:00 +39°C° 0 mm 5 m/s 750 mmHg 29%
    16:00 +37°C° 0 mm 5 m/s 750 mmHg 32%
    17:00 +36°C° 0 mm 5 m/s 750 mmHg 34%
    18:00 +35°C° 0 mm 5 m/s 750 mmHg 37%
    19:00 +34°C° 0 mm 4 m/s 750 mmHg 40%
    20:00 +33°C° 0 mm 4 m/s 750 mmHg 42%
    21:00 +33°C° 0 mm 3 m/s 751 mmHg 45%
    22:00 +31°C° 0 mm 3 m/s 751 mmHg 47%
    23:00 +31°C° 0 mm 2 m/s 751 mmHg 49%

    24 August, Joi

    Timp Temperatura Precipitaţii Vânt Presiune Umiditate
    00:00 +30°C° 0 mm 2 m/s 751 mmHg 51%
    01:00 +30°C° 0 mm 2 m/s 750 mmHg 55%
    02:00 +29°C° 0 mm 2 m/s 750 mmHg 58%
    03:00 +28°C° 0 mm 2 m/s 750 mmHg 62%
    04:00 +28°C° 0 mm 2 m/s 750 mmHg 63%
    05:00 +28°C° 0 mm 2 m/s 750 mmHg 64%
    06:00 +28°C° 0 mm 2 m/s 750 mmHg 65%
    07:00 +29°C° 0 mm 2 m/s 750 mmHg 58%
    08:00 +31°C° 0 mm 2 m/s 750 mmHg 51%
    09:00 +32°C° 0 mm 2 m/s 751 mmHg 45%
    10:00 +35°C° 0 mm 2 m/s 751 mmHg 41%
    11:00 +36°C° 0 mm 3 m/s 750 mmHg 37%
    12:00 +37°C° 0 mm 3 m/s 750 mmHg 34%
    13:00 +37°C° 0 mm 3 m/s 750 mmHg 35%
    14:00 +37°C° 0 mm 3 m/s 750 mmHg 37%
    15:00 +37°C° 0 mm 3 m/s 749 mmHg 39%
    16:00 +36°C° 0 mm 3 m/s 749 mmHg 40%
    17:00 +36°C° 0 mm 3 m/s 749 mmHg 41%
    18:00 +35°C° 0 mm 3 m/s 749 mmHg 42%
    19:00 +35°C° 0 mm 3 m/s 749 mmHg 44%
    20:00 +34°C° 0 mm 2 m/s 750 mmHg 47%
    21:00 +32°C° 0 mm 1 m/s 750 mmHg 50%
    22:00 +32°C° 0 mm 1 m/s 750 mmHg 52%
    23:00 +31°C° 0 mm 1 m/s 750 mmHg 53%

    25 August, Vineri

    Timp Temperatura Precipitaţii Vânt Presiune Umiditate
    00:00 +31°C° 0 mm 2 m/s 749 mmHg 55%
    01:00 +31°C° 0 mm 1 m/s 749 mmHg 57%
    02:00 +30°C° 0 mm 1 m/s 749 mmHg 59%
    03:00 +30°C° 0 mm 1 m/s 749 mmHg 61%
    04:00 +30°C° 0 mm 1 m/s 749 mmHg 61%
    05:00 +30°C° 0 mm 1 m/s 749 mmHg 61%
    06:00 +30°C° 0 mm 1 m/s 749 mmHg 60%
    07:00 +31°C° 0 mm 1 m/s 749 mmHg 55%
    08:00 +32°C° 0 mm 1 m/s 749 mmHg 49%
    09:00 +34°C° 0 mm 1 m/s 749 mmHg 44%
    10:00 +36°C° 0 mm 2 m/s 749 mmHg 40%
    11:00 +37°C° 0 mm 3 m/s 749 mmHg 37%
    12:00 +39°C° 0 mm 3 m/s 748 mmHg 33%
    13:00 +40°C° 0 mm 4 m/s 748 mmHg 34%
    14:00 +38°C° 0 mm 4 m/s 747 mmHg 35%
    15:00 +38°C° 0 mm 4 m/s 747 mmHg 35%
    16:00 +37°C° 0 mm 4 m/s 747 mmHg 39%
    17:00 +36°C° 0 mm 3 m/s 747 mmHg 42%
    18:00 +35°C° 0 mm 2 m/s 747 mmHg 45%
    19:00 +35°C° 0 mm 2 m/s 747 mmHg 47%
    20:00 +33°C° 0 mm 1 m/s 748 mmHg 49%
    21:00 +32°C° 0 mm 1 m/s 748 mmHg 51%
    22:00 +32°C° 0 mm 2 m/s 748 mmHg 54%
    23:00 +31°C° 0 mm 2 m/s 748 mmHg 57%

    26 August, Sâmbătă

    Timp Temperatura Precipitaţii Vânt Presiune Umiditate
    00:00 +31°C° 0 mm 3 m/s 747 mmHg 60%
    01:00 +30°C° 0 mm 2 m/s 747 mmHg 64%
    02:00 +29°C° 0 mm 2 m/s 747 mmHg 68%
    03:00 +29°C° 0 mm 2 m/s 747 mmHg 72%
    04:00 +29°C° 0 mm 2 m/s 747 mmHg 72%
    05:00 +29°C° 0 mm 1 m/s 747 mmHg 72%
    06:00 +29°C° 0 mm 1 m/s 747 mmHg 71%
    07:00 +30°C° 0 mm 1 m/s 748 mmHg 65%
    08:00 +31°C° 0 mm 2 m/s 748 mmHg 58%
    09:00 +34°C° 0 mm 2 m/s 748 mmHg 51%
    10:00 +34°C° 0 mm 3 m/s 748 mmHg 49%
    11:00 +35°C° 0 mm 3 m/s 748 mmHg 48%
    12:00 +36°C° 0 mm 4 m/s 748 mmHg 46%
    13:00 +35°C° 0 mm 4 m/s 747 mmHg 46%
    14:00 +35°C° 0 mm 4 m/s 747 mmHg 47%
    15:00 +34°C° 0 mm 5 m/s 746 mmHg 48%
    16:00 +34°C° 0 mm 4 m/s 747 mmHg 50%
    17:00 +33°C° 0 mm 3 m/s 747 mmHg 53%
    18:00 +31°C° 0 mm 3 m/s 747 mmHg 55%
    19:00 +30°C° 0 mm 3 m/s 747 mmHg 57%
    20:00 +29°C° 0 mm 3 m/s 748 mmHg 60%
    21:00 +29°C° 0 mm 3 m/s 748 mmHg 62%
    22:00 +28°C° 0 mm 3 m/s 748 mmHg 62%
    23:00 +28°C° 0 mm 3 m/s 748 mmHg 63%
    Arată mai mult